マックホルツ第1彗星

96P/Machholz 1 (2012)

English version
Home page
Updated on February 10, 2013

---------------------------------------------------------------------

・ プロフィール

・ 写真集

・ 軌道要素

Epoch 2012 July 12.0 TT = JDT 2456120.5
T 2012 July 14.78519 TT                                 MPC
q   0.1237912            (2000.0)            P               Q
n   0.18661467     Peri.   14.75601     -0.20637678     -0.48750525
a   3.0327657      Node    94.32427     +0.78923890     -0.59544197
e   0.9591821      Incl.   58.29892     +0.57836889     +0.63858241
P   5.28
From 857 observations 1997 Apr. 15-2012 Aug. 27, mean residual 0".6.
     Nongravitational parameters A1 = -0.01, A2 = -0.0001.

・ 星図

・ 光度変化

        m1 = 12.7 + 5 logΔ + 12.0 log r

---------------------------------------------------------------------

軌道要素はM.P.E.C. 2012-Q70に掲載されたものです。
星図はステラナビゲータ Ver.8 (アストロアーツ) で作成したものです。
光度グラフはComet for Windowsで作成したものです。

---------------------------------------------------------------------

Copyright(C) Seiichi Yoshida (comet@aerith.net). All rights reserved.